AEROCUBE 7B (43042 NORAD) Tracking and Keplerian Element Data

This shows tracking and keplerian element data for the satellite.

Feedback or suggestion? Click here.




ElementValue
Catalog43042
NameAEROCUBE 7B
Epoch Orbit5291
Epoch Day319.51823279
Epoch Year2018
RAAN23.7794
Inclination51.64
Eccentricity0.000538
Argument of Perigee93.873
Mean Anonmoly266.287
Mean Motion15.39807056
Decay Rate2.646E-05
L11 43042U 17071F 18319.51823279 .00002646 00000-0 75659-4 0 9992
L22 43042 51.6400 23.7794 0005380 93.8730 266.2870 15.39807056 52911

Live tracking and technical data element details for AEROCUBE 7B (NORAD 43042). AEROCUBE 7B can be tracked NOW for your location showing map with azimuth and elevation plus other details from your city location.

Track the satellite on the map from your city or location and see movement details for azimuth, elevation, latitude, longitude, range, height, and movement on the map or in text.







IsCatalogInMostPopularTable: catalog: 43042, numindb: 157
Update: records affected: 1



GetName: 43042 AEROCUBE 7B

Hit Count: updated at: Fri, 16 Nov 2018 12:18:44 GMT